TimeEST,TemperatureF,Dew PointF,Humidity,Sea Level PressureIn,VisibilityMPH,Wind Direction,Wind SpeedMPH,Gust SpeedMPH,PrecipitationIn,Events,Conditions,WindDirDegrees,DateUTC
12:54 AM,28.9,24.1,82,30.27,-9999.0,Calm,Calm,-,N/A,,Unknown,0,2012-11-27 05:54:00
1:54 AM,30.0,24.1,79,30.28,-9999.0,Calm,Calm,-,N/A,,Unknown,0,2012-11-27 06:54:00
2:54 AM,30.0,25.0,82,30.28,-9999.0,Calm,Calm,-,N/A,,Unknown,0,2012-11-27 07:54:00
3:54 AM,32.0,26.1,79,30.27,-9999.0,Calm,Calm,-,N/A,,Unknown,0,2012-11-27 08:54:00
4:54 AM,32.0,27.0,82,30.29,-9999.0,Calm,Calm,-,N/A,,Unknown,0,2012-11-27 09:54:00
5:54 AM,32.0,28.9,88,30.29,-9999.0,Calm,Calm,-,0.01,,Unknown,0,2012-11-27 10:54:00
6:54 AM,32.0,30.0,92,30.30,-9999.0,Calm,Calm,-,0.02,,Unknown,0,2012-11-27 11:54:00
7:54 AM,32.0,30.9,96,30.30,-9999.0,Calm,Calm,-,0.02,,Unknown,0,2012-11-27 12:54:00
8:54 AM,33.1,32.0,96,30.30,-9999.0,Calm,Calm,-,0.04,,Unknown,0,2012-11-27 13:54:00
9:54 AM,33.1,32.0,96,30.30,-9999.0,Calm,Calm,-,0.05,,Unknown,0,2012-11-27 14:54:00
10:54 AM,33.1,32.0,96,30.30,-9999.0,Calm,Calm,-,0.04,,Unknown,0,2012-11-27 15:54:00
11:54 AM,34.0,32.0,92,30.28,-9999.0,Calm,Calm,-,0.02,,Unknown,0,2012-11-27 16:54:00
12:54 PM,34.0,32.0,92,30.27,-9999.0,NNE,3.5,-,0.06,,Unknown,30,2012-11-27 17:54:00
1:54 PM,34.0,32.0,92,30.25,-9999.0,NE,4.6,-,0.03,,Unknown,40,2012-11-27 18:54:00
2:54 PM,34.0,32.0,92,30.24,-9999.0,Variable,4.6,-,N/A,,Unknown,0,2012-11-27 19:54:00
3:54 PM,33.1,32.0,96,30.24,-9999.0,NE,5.8,-,N/A,,Unknown,40,2012-11-27 20:54:00
4:54 PM,33.1,32.0,96,30.24,-9999.0,NE,4.6,-,N/A,,Unknown,40,2012-11-27 21:54:00
5:54 PM,34.0,32.0,92,30.24,-9999.0,Variable,4.6,-,N/A,,Unknown,0,2012-11-27 22:54:00
6:54 PM,34.0,32.0,92,30.25,-9999.0,Variable,3.5,-,N/A,,Unknown,0,2012-11-27 23:54:00
7:54 PM,33.1,32.0,96,30.25,-9999.0,NNE,4.6,-,N/A,,Unknown,30,2012-11-28 00:54:00
8:54 PM,34.0,32.0,92,30.26,-9999.0,NE,4.6,-,N/A,,Unknown,50,2012-11-28 01:54:00
9:54 PM,33.1,30.9,92,30.25,-9999.0,NNE,4.6,-,N/A,,Unknown,30,2012-11-28 02:54:00
10:54 PM,34.0,30.9,89,30.26,-9999.0,Calm,Calm,-,N/A,,Unknown,0,2012-11-28 03:54:00
11:54 PM,33.1,30.9,92,30.26,-9999.0,Calm,Calm,-,N/A,,Unknown,0,2012-11-28 04:54:00